Time,TemperatureF,DewpointF,PressureIn,WindDirection,WindDirectionDegrees,WindSpeedMPH,WindSpeedGustMPH,Humidity,HourlyPrecipIn,Conditions,Clouds,dailyrainin,SoftwareType,DateUTC
2013-01-31 07:02:00,22.0,18.0,-100.00,NW,305,22.0,33.0,82,-99.99,,,-99.99,,2013-01-31 14:02:00,
2013-01-31 07:11:00,22.0,18.0,-100.00,NW,305,19.0,33.0,82,-99.99,,,-99.99,,2013-01-31 14:11:00,
2013-01-31 07:22:00,22.0,18.0,-100.00,NW,305,22.0,32.0,82,-99.99,,,-99.99,,2013-01-31 14:22:00,
2013-01-31 07:32:00,22.0,18.0,-100.00,NW,305,21.0,30.0,82,-99.99,,,-99.99,,2013-01-31 14:32:00,
2013-01-31 07:42:00,23.0,18.0,-100.00,WNW,300,29.0,40.0,80,-99.99,,,-99.99,,2013-01-31 14:42:00,
2013-01-31 07:52:00,22.0,17.0,-100.00,WNW,295,28.0,38.0,81,-99.99,,,-99.99,,2013-01-31 14:52:00,
2013-01-31 08:03:00,22.0,17.0,-100.00,WNW,295,27.0,40.0,81,-99.99,,,-99.99,,2013-01-31 15:03:00,
2013-01-31 08:12:00,22.0,18.0,-100.00,WNW,295,24.0,34.0,81,-99.99,,,-99.99,,2013-01-31 15:12:00,
2013-01-31 08:22:00,22.0,18.0,-100.00,WNW,290,23.0,30.0,82,-99.99,,,-99.99,,2013-01-31 15:22:00,
2013-01-31 08:32:00,22.0,18.0,-100.00,West,280,22.0,34.0,82,-99.99,,,-99.99,,2013-01-31 15:32:00,
2013-01-31 08:42:00,22.0,18.0,-100.00,West,280,26.0,35.0,81,-99.99,,,-99.99,,2013-01-31 15:42:00,
2013-01-31 08:51:00,23.0,18.0,-100.00,West,280,28.0,40.0,81,-99.99,,,-99.99,,2013-01-31 15:51:00,
2013-01-31 09:03:00,23.0,18.0,-100.00,West,280,29.0,40.0,79,-99.99,,,-99.99,,2013-01-31 16:03:00,
2013-01-31 09:12:00,24.0,18.0,-100.00,West,280,30.0,41.0,78,-99.99,,,-99.99,,2013-01-31 16:12:00,
2013-01-31 09:21:00,24.0,18.0,-100.00,West,280,28.0,37.0,78,-99.99,,,-99.99,,2013-01-31 16:21:00,
2013-01-31 09:33:00,24.0,18.0,-100.00,WNW,285,28.0,40.0,77,-99.99,,,-99.99,,2013-01-31 16:33:00,
2013-01-31 09:42:00,24.0,18.0,-100.00,West,265,29.0,42.0,77,-99.99,,,-99.99,,2013-01-31 16:42:00,
2013-01-31 09:51:00,24.0,18.0,-100.00,West,270,30.0,40.0,76,-99.99,,,-99.99,,2013-01-31 16:51:00,
2013-01-31 10:02:00,25.0,18.0,-100.00,West,265,34.0,44.0,75,-99.99,,,-99.99,,2013-01-31 17:02:00,
2013-01-31 10:12:00,25.0,18.0,-100.00,West,260,31.0,40.0,74,-99.99,,,-99.99,,2013-01-31 17:12:00,
2013-01-31 10:23:00,25.0,18.0,-100.00,West,265,30.0,45.0,73,-99.99,,,-99.99,,2013-01-31 17:23:00,
2013-01-31 10:32:00,26.0,18.0,-100.00,West,270,32.0,43.0,72,-99.99,,,-99.99,,2013-01-31 17:32:00,
2013-01-31 10:43:00,26.0,19.0,-100.00,West,270,28.0,44.0,72,-99.99,,,-99.99,,2013-01-31 17:43:00,
2013-01-31 10:53:00,26.0,18.0,-100.00,West,280,31.0,42.0,70,-99.99,,,-99.99,,2013-01-31 17:53:00,
2013-01-31 11:02:00,27.0,19.0,-100.00,West,280,27.0,40.0,70,-99.99,,,-99.99,,2013-01-31 18:02:00,
2013-01-31 11:12:00,26.0,18.0,-100.00,West,280,28.0,39.0,69,-99.99,,,-99.99,,2013-01-31 18:12:00,
2013-01-31 11:22:00,27.0,18.0,-100.00,West,280,29.0,39.0,69,-99.99,,,-99.99,,2013-01-31 18:22:00,
2013-01-31 11:32:00,27.0,18.0,-100.00,West,275,24.0,34.0,69,-99.99,,,-99.99,,2013-01-31 18:32:00,
2013-01-31 11:43:00,27.0,18.0,-100.00,West,280,29.0,36.0,69,-99.99,,,-99.99,,2013-01-31 18:43:00,
2013-01-31 11:52:00,27.0,17.0,-100.00,West,280,28.0,40.0,66,-99.99,,,-99.99,,2013-01-31 18:52:00,
2013-01-31 12:02:00,27.0,17.0,-100.00,WNW,285,26.0,37.0,66,-99.99,,,-99.99,,2013-01-31 19:02:00,
2013-01-31 12:12:00,27.0,18.0,-100.00,WNW,285,23.0,34.0,67,-99.99,,,-99.99,,2013-01-31 19:12:00,
2013-01-31 12:21:00,27.0,18.0,-100.00,West,270,25.0,35.0,67,-99.99,,,-99.99,,2013-01-31 19:21:00,
2013-01-31 12:32:00,27.0,18.0,-100.00,West,270,24.0,34.0,66,-99.99,,,-99.99,,2013-01-31 19:32:00,
2013-01-31 12:42:00,27.0,18.0,-100.00,West,270,25.0,40.0,66,-99.99,,,-99.99,,2013-01-31 19:42:00,
2013-01-31 12:51:00,28.0,18.0,-100.00,West,275,28.0,35.0,65,-99.99,,,-99.99,,2013-01-31 19:51:00,
2013-01-31 13:02:00,28.0,18.0,-100.00,West,270,30.0,37.0,64,-99.99,,,-99.99,,2013-01-31 20:02:00,
2013-01-31 13:11:00,28.0,17.0,-100.00,West,275,30.0,40.0,63,-99.99,,,-99.99,,2013-01-31 20:11:00,
2013-01-31 13:21:00,28.0,17.0,-100.00,West,270,32.0,39.0,61,-99.99,,,-99.99,,2013-01-31 20:21:00,
2013-01-31 13:31:00,28.0,17.0,-100.00,West,280,29.0,39.0,61,-99.99,,,-99.99,,2013-01-31 20:31:00,
2013-01-31 13:42:00,29.0,17.0,-100.00,West,280,31.0,40.0,60,-99.99,,,-99.99,,2013-01-31 20:42:00,
2013-01-31 13:52:00,29.0,16.0,-100.00,West,270,31.0,39.0,58,-99.99,,,-99.99,,2013-01-31 20:52:00,
2013-01-31 14:02:00,29.0,16.0,-100.00,West,280,31.0,39.0,57,-99.99,,,-99.99,,2013-01-31 21:02:00,
2013-01-31 14:12:00,29.0,16.0,-100.00,West,280,29.0,38.0,57,-99.99,,,-99.99,,2013-01-31 21:12:00,
2013-01-31 14:21:00,29.0,16.0,-100.00,West,275,27.0,37.0,56,-99.99,,,-99.99,,2013-01-31 21:21:00,
2013-01-31 14:32:00,29.0,16.0,-100.00,West,280,32.0,39.0,56,-99.99,,,-99.99,,2013-01-31 21:32:00,
2013-01-31 14:42:00,29.0,16.0,-100.00,West,280,29.0,39.0,55,-99.99,,,-99.99,,2013-01-31 21:42:00,
2013-01-31 14:52:00,29.0,16.0,-100.00,West,280,27.0,39.0,55,-99.99,,,-99.99,,2013-01-31 21:52:00,
2013-01-31 15:02:00,29.0,15.0,-100.00,WNW,295,24.0,37.0,56,-99.99,,,-99.99,,2013-01-31 22:02:00,
2013-01-31 15:11:00,29.0,15.0,-100.00,WNW,295,27.0,33.0,56,-99.99,,,-99.99,,2013-01-31 22:11:00,
2013-01-31 15:22:00,29.0,15.0,-100.00,West,280,24.0,35.0,56,-99.99,,,-99.99,,2013-01-31 22:22:00,
2013-01-31 15:32:00,29.0,16.0,-100.00,West,270,26.0,35.0,56,-99.99,,,-99.99,,2013-01-31 22:32:00,
2013-01-31 15:42:00,28.0,16.0,-100.00,WNW,295,25.0,37.0,60,-99.99,,,-99.99,,2013-01-31 22:42:00,
2013-01-31 15:51:00,28.0,16.0,-100.00,West,280,29.0,38.0,59,-99.99,,,-99.99,,2013-01-31 22:51:00,
2013-01-31 16:02:00,28.0,16.0,-100.00,WNW,285,24.0,35.0,59,-99.99,,,-99.99,,2013-01-31 23:02:00,
2013-01-31 16:12:00,28.0,15.0,-100.00,West,280,26.0,37.0,57,-99.99,,,-99.99,,2013-01-31 23:12:00,
2013-01-31 16:21:00,28.0,15.0,-100.00,West,280,28.0,35.0,58,-99.99,,,-99.99,,2013-01-31 23:21:00,
2013-01-31 16:32:00,28.0,15.0,-100.00,West,280,29.0,37.0,57,-99.99,,,-99.99,,2013-01-31 23:32:00,
2013-01-31 16:42:00,28.0,15.0,-100.00,West,280,25.0,37.0,57,-99.99,,,-99.99,,2013-01-31 23:42:00,
2013-01-31 16:52:00,28.0,15.0,-100.00,West,275,26.0,35.0,57,-99.99,,,-99.99,,2013-01-31 23:52:00,
2013-01-31 17:01:00,27.0,15.0,-100.00,West,280,24.0,34.0,57,-99.99,,,-99.99,,2013-02-01 00:01:00,
2013-01-31 17:11:00,27.0,14.0,-100.00,West,280,26.0,37.0,57,-99.99,,,-99.99,,2013-02-01 00:11:00,
2013-01-31 17:21:00,27.0,14.0,-100.00,WNW,285,24.0,37.0,57,-99.99,,,-99.99,,2013-02-01 00:21:00,
2013-01-31 17:31:00,26.0,14.0,-100.00,WNW,295,21.0,34.0,59,-99.99,,,-99.99,,2013-02-01 00:31:00,
2013-01-31 17:42:00,26.0,14.0,-100.00,WNW,295,22.0,34.0,59,-99.99,,,-99.99,,2013-02-01 00:42:00,
2013-01-31 17:51:00,26.0,14.0,-100.00,WNW,295,23.0,32.0,59,-99.99,,,-99.99,,2013-02-01 00:51:00,
2013-01-31 18:01:00,26.0,14.0,-100.00,WNW,285,23.0,30.0,60,-99.99,,,-99.99,,2013-02-01 01:01:00,
2013-01-31 18:11:00,26.0,14.0,-100.00,West,280,24.0,34.0,59,-99.99,,,-99.99,,2013-02-01 01:11:00,
2013-01-31 18:21:00,26.0,13.0,-100.00,WNW,290,26.0,35.0,60,-99.99,,,-99.99,,2013-02-01 01:21:00,
2013-01-31 18:32:00,25.0,14.0,-100.00,West,275,24.0,33.0,61,-99.99,,,-99.99,,2013-02-01 01:32:00,
2013-01-31 18:42:00,25.0,14.0,-100.00,West,270,23.0,30.0,61,-99.99,,,-99.99,,2013-02-01 01:42:00,
2013-01-31 18:51:00,25.0,14.0,-100.00,West,270,23.0,32.0,61,-99.99,,,-99.99,,2013-02-01 01:51:00,
2013-01-31 19:01:00,26.0,14.0,-100.00,West,265,27.0,35.0,61,-99.99,,,-99.99,,2013-02-01 02:01:00,
2013-01-31 19:11:00,25.0,14.0,-100.00,West,265,28.0,38.0,61,-99.99,,,-99.99,,2013-02-01 02:11:00,
2013-01-31 19:21:00,26.0,14.0,-100.00,West,270,29.0,40.0,61,-99.99,,,-99.99,,2013-02-01 02:21:00,
2013-01-31 19:31:00,26.0,14.0,-100.00,West,265,27.0,38.0,61,-99.99,,,-99.99,,2013-02-01 02:31:00,
2013-01-31 19:41:00,26.0,15.0,-100.00,West,260,29.0,40.0,62,-99.99,,,-99.99,,2013-02-01 02:41:00,
2013-01-31 19:52:00,26.0,15.0,-100.00,West,265,28.0,38.0,62,-99.99,,,-99.99,,2013-02-01 02:52:00,
2013-01-31 20:02:00,26.0,15.0,-100.00,West,265,28.0,39.0,63,-99.99,,,-99.99,,2013-02-01 03:02:00,
2013-01-31 20:12:00,26.0,15.0,-100.00,West,270,29.0,43.0,62,-99.99,,,-99.99,,2013-02-01 03:12:00,
2013-01-31 20:21:00,26.0,15.0,-100.00,West,270,28.0,40.0,62,-99.99,,,-99.99,,2013-02-01 03:21:00,
2013-01-31 20:32:00,26.0,15.0,-100.00,West,270,27.0,35.0,62,-99.99,,,-99.99,,2013-02-01 03:32:00,
2013-01-31 20:41:00,26.0,15.0,-100.00,West,275,28.0,40.0,62,-99.99,,,-99.99,,2013-02-01 03:41:00,
2013-01-31 20:51:00,26.0,15.0,-100.00,West,275,26.0,40.0,63,-99.99,,,-99.99,,2013-02-01 03:51:00,
2013-01-31 21:02:00,25.0,15.0,-100.00,West,270,24.0,37.0,64,-99.99,,,-99.99,,2013-02-01 04:02:00,
2013-01-31 21:11:00,26.0,15.0,-100.00,West,280,27.0,35.0,64,-99.99,,,-99.99,,2013-02-01 04:11:00,
2013-01-31 21:21:00,25.0,15.0,-100.00,West,275,28.0,37.0,65,-99.99,,,-99.99,,2013-02-01 04:21:00,
2013-01-31 21:32:00,25.0,15.0,-100.00,West,275,26.0,40.0,65,-99.99,,,-99.99,,2013-02-01 04:32:00,
2013-01-31 21:41:00,25.0,15.0,-100.00,West,275,24.0,38.0,65,-99.99,,,-99.99,,2013-02-01 04:41:00,
2013-01-31 21:51:00,26.0,15.0,-100.00,West,270,29.0,42.0,64,-99.99,,,-99.99,,2013-02-01 04:51:00,
2013-01-31 22:03:00,26.0,15.0,-100.00,West,275,29.0,38.0,65,-99.99,,,-99.99,,2013-02-01 05:03:00,
2013-01-31 22:11:00,25.0,15.0,-100.00,West,280,25.0,38.0,64,-99.99,,,-99.99,,2013-02-01 05:11:00,
2013-01-31 22:22:00,25.0,15.0,-100.00,West,280,22.0,38.0,64,-99.99,,,-99.99,,2013-02-01 05:22:00,
2013-01-31 22:32:00,25.0,15.0,-100.00,West,280,19.0,35.0,65,-99.99,,,-99.99,,2013-02-01 05:32:00,
2013-01-31 22:41:00,25.0,15.0,-100.00,West,270,21.0,35.0,65,-99.99,,,-99.99,,2013-02-01 05:41:00,
2013-01-31 22:52:00,25.0,15.0,-100.00,West,265,18.0,32.0,66,-99.99,,,-99.99,,2013-02-01 05:52:00,
2013-01-31 23:02:00,25.0,15.0,-100.00,West,260,22.0,34.0,66,-99.99,,,-99.99,,2013-02-01 06:02:00,
2013-01-31 23:11:00,25.0,15.0,-100.00,WSW,255,20.0,31.0,66,-99.99,,,-99.99,,2013-02-01 06:11:00,
2013-01-31 23:22:00,25.0,15.0,-100.00,WSW,245,26.0,32.0,66,-99.99,,,-99.99,,2013-02-01 06:22:00,
2013-01-31 23:32:00,25.0,16.0,-100.00,WSW,255,26.0,35.0,66,-99.99,,,-99.99,,2013-02-01 06:32:00,
2013-01-31 23:42:00,25.0,15.0,-100.00,WSW,250,26.0,34.0,65,-99.99,,,-99.99,,2013-02-01 06:42:00,
2013-01-31 23:52:00,26.0,16.0,-100.00,WSW,250,26.0,36.0,65,-99.99,,,-99.99,,2013-02-01 06:52:00,